User: anonymous   Login
Location: Unspecified
(0.0000°N, 0.0000°E)
Time: 20:06:56
(UTC+00:00)
Language:

STARLINK-30762 - Orbit

View from above orbital plane
View from above orbital plane
View from above satellite
View from above satellite

Ground track
Ground track

The orbit is defined by the following mean orbital elements,

1 58197U          26145.20671700 +.00000000 +00000-0 +70766-4 0 00004
2 58197  43.0015  71.5850 0001421 265.1603  94.9087 15.27578575    01
Epoch (UTC): 25 May 2026 04:57:40
Eccentricity: 0.0001421
inclination: 43.0015°
perigee height: 482 km
apogee height: 484 km
right ascension of ascending node: 71.5850°
argument of perigee: 265.1603°
revolutions per day: 15.27578575
mean anomaly at epoch: 94.9087°

The dashed part of the orbit path shows where the satellite is in the earth's shadow,  

DLR